Wind_Speed
1 2 2 2 2 2 2 3 3 4 4 4 4 4 5 4 4 4 3 4 4 4 3 4 4 4 3 3 2 2 2 2 2 2 2 2 2 2 2 3 3 3 2 2 3 3 3 3 3
2 2 2 2 2 1 2 3 3 4 4 4 5 5 5 5 5 4 4 4 4 4 3 3 4 4 4 3 3 3 3 3 3 3 2 3 3 3 3 3 3 3 2 3 3 3 3 3 4
2 2 2 2 2 1 2 2 3 5 5 6 6 5 6 6 6 6 5 5 5 4 4 3 3 3 3 3 3 4 4 4 4 4 4 5 5 4 4 5 5 4 4 4 4 4 4 4 4
3 2 2 2 2 2 3 3 5 5 6 6 5 5 6 6 5 5 5 5 5 4 4 4 4 4 4 4 4 4 4 5 5 5 6 6 5 6 6 6 5 5 5 5 5 4 5 5 5
3 3 2 2 3 3 3 4 5 5 5 4 5 6 6 6 6 6 6 6 5 5 5 4 4 5 5 5 5 5 6 6 6 6 6 6 6 6 6 6 5 6 6 6 6 5 5 6 7
3 3 3 3 3 3 3 4 5 5 5 5 6 6 6 6 6 6 6 6 6 5 5 5 5 5 5 5 6 6 7 7 7 7 7 7 7 7 8 8 8 8 8 8 7 7 7 7 8
3 3 3 4 4 4 4 4 4 5 6 6 6 6 6 6 6 6 6 7 6 6 6 6 6 6 6 6 6 7 7 8 8 9 9 9 9 8 8 9 9 9 9 9 8 8 8 9 9
3 3 4 5 5 4 4 4 5 5 6 6 6 6 6 6 7 7 7 7 7 7 7 6 6 7 7 7 6 7 8 8 8 9 9 9 9 8 8 9 9 9 9 9 10 10 9 10 10
4 4 5 5 5 4 4 4 5 5 6 6 7 7 6 7 7 7 8 8 8 7 7 7 7 7 7 7 7 7 8 8 8 9 9 9 8 8 9 9 10 10 10 10 11 11 11 11 11
4 5 5 6 6 5 6 6 6 6 7 7 7 8 8 7 7 8 8 8 8 7 8 7 7 7 7 7 8 8 8 9 9 9 9 9 9 9 9 10 10 10 11 11 11 12 12 12 12
4 5 6 6 7 7 7 7 6 7 7 8 8 8 8 8 8 8 8 9 8 8 8 8 7 7 8 8 8 8 9 9 10 10 10 10 10 10 10 10 11 11 11 11 11 11 12 12 12
5 6 6 7 7 7 7 7 7 7 8 8 8 9 9 9 9 9 9 9 8 8 8 8 8 8 8 9 9 9 10 10 10 10 10 11 11 11 11 10 10 11 11 11 11 12 12 12 12
6 6 7 7 8 7 7 7 8 8 9 9 9 10 10 10 10 10 10 10 9 9 9 9 10 9 9 10 10 10 11 11 11 11 11 11 12 12 11 11 10 11 11 11 12 12 12 13 13
7 7 7 8 8 8 8 8 8 8 9 9 9 10 11 10 10 10 11 10 10 10 10 10 11 11 10 11 11 11 11 12 12 12 12 12 12 12 12 11 11 11 12 12 12 13 13 13 13
7 8 8 8 8 8 9 9 9 9 10 10 10 10 11 11 11 11 11 11 11 11 11 11 11 11 11 12 12 12 12 12 13 13 13 13 13 13 13 13 12 12 12 12 12 12 13 13 14
8 9 9 9 10 10 10 10 10 10 11 11 11 11 11 11 11 11 12 12 12 12 12 13 12 12 12 13 13 13 13 13 13 13 13 14 14 13 13 14 13 13 12 12 13 13 13 13 14
9 9 10 10 11 11 11 11 11 11 12 12 12 12 12 11 11 12 12 12 13 13 13 14 13 14 14 14 14 14 14 14 14 15 15 15 14 14 15 15 14 13 13 13 13 14 14 14 14
9 10 11 11 10 11 12 12 12 12 13 13 13 13 13 13 13 13 13 13 13 14 14 14 14 15 15 15 15 15 15 16 16 16 16 16 16 15 15 14 14 14 14 14 15 15 15 15 15
10 10 11 11 10 10 11 13 13 13 14 14 14 14 14 14 14 14 14 15 15 15 16 16 16 16 16 16 16 16 16 16 16 16 16 16 16 16 15 15 15 15 15 16 16 16 16 16 16
11 11 12 12 11 11 12 13 14 14 14 14 15 14 15 15 16 16 16 16 16 16 17 18 18 18 18 18 18 18 18 18 17 17 18 18 17 17 17 17 16 16 16 16 16 17 17 17 17
12 12 13 13 12 12 13 13 15 14 14 15 16 16 16 16 18 18 18 18 18 18 18 18 19 19 20 20 20 20 20 19 19 19 19 19 19 19 19 18 18 18 18 18 17 18 18 18 18
13 13 13 13 13 13 13 15 15 16 16 17 17 18 18 18 19 19 19 19 20 20 20 20 20 21 21 21 21 21 21 20 20 21 20 20 20 20 20 20 20 20 19 19 18 19 19 20 20
13 12 12 12 13 14 14 15 15 16 17 18 18 19 19 20 20 20 20 20 21 21 21 21 21 22 22 22 22 22 22 22 21 21 22 22 21 22 22 22 22 21 21 21 20 21 21 21 20
13 12 12 13 13 15 15 16 16 17 17 18 20 20 21 21 21 21 21 22 22 22 22 22 23 22 22 22 22 22 23 23 22 23 23 23 23 23 23 23 23 23 23 22 22 22 22 21 22
13 13 13 13 13 14 16 17 19 18 19 20 21 21 22 22 23 23 23 23 23 23 23 24 24 23 23 23 23 23 24 23 23 23 24 24 24 24 24 24 24 24 24 24 23 23 23 23 23
14 14 14 14 14 16 16 17 19 20 20 20 21 21 22 23 23 24 24 24 25 24 24 25 25 24 24 24 24 24 25 25 24 25 25 25 25 26 26 26 26 25 26 26 25 25 25 24 23
15 15 16 16 16 17 18 18 20 20 21 22 22 22 23 23 24 24 25 25 25 25 25 26 25 25 25 26 26 25 26 26 26 26 26 26 26 27 27 27 27 27 27 27 27 27 27 26 25
16 16 16 17 18 19 19 20 20 21 21 23 23 23 24 24 25 25 25 25 25 26 26 26 25 25 27 27 27 27 27 26 26 26 27 27 27 28 28 28 28 28 28 29 29 29 28 28 27
18 18 19 20 20 20 21 22 23 23 23 25 25 25 25 25 25 25 25 25 26 26 26 26 26 26 26 26 27 27 27 27 26 27 28 28 29 29 29 29 29 29 30 30 30 30 30 29 29
20 20 20 21 21 21 23 24 24 25 25 26 26 26 26 26 26 25 25 25 26 25 25 25 25 26 26 27 27 27 27 27 27 28 29 29 29 29 30 30 30 30 30 30 30 30 30 30 30
Wind_Direction
181 189 193 201 199 228 244 242 237 231 229 231 239 237 243 246 250 245 260 266 271 272 273 276 289 289 267 267 280 296 282 281 283 298 313 310 324 326 325 325 326 322 299 275 275 281 277 269 265
199 203 204 210 209 218 255 255 246 235 236 239 242 243 245 249 253 253 254 263 268 275 283 282 285 289 274 274 282 296 299 299 291 287 290 298 300 297 294 302 313 318 310 302 294 288 282 289 291
206 217 217 211 230 215 251 251 244 247 243 243 242 244 249 254 254 256 256 262 268 276 280 292 296 293 292 282 286 291 296 297 293 292 285 290 292 290 286 289 299 300 296 295 291 288 284 288 287
212 215 223 227 235 241 252 252 252 255 250 247 251 250 254 256 257 256 258 263 267 267 270 284 289 290 296 294 283 284 289 287 287 291 297 294 294 292 288 293 292 301 303 295 290 289 286 284 279
216 221 233 246 250 254 262 262 261 261 250 253 260 257 256 256 264 264 264 266 265 264 266 274 282 289 292 292 286 283 288 290 290 296 298 290 291 294 292 295 300 299 294 293 291 286 283 284 279
223 234 237 251 262 268 277 268 263 269 271 266 265 267 261 261 265 267 270 268 263 261 265 272 277 282 287 286 287 288 289 287 289 297 300 298 299 297 297 291 293 291 291 291 297 294 293 295 288
226 238 249 254 259 271 274 272 269 269 273 269 264 262 262 261 266 270 271 273 266 264 269 272 274 277 280 286 288 289 289 291 293 296 299 296 300 298 292 290 288 290 290 286 288 291 291 294 295
242 251 258 261 259 265 268 269 264 267 271 270 264 261 265 267 267 271 273 274 273 272 275 275 276 278 280 285 289 291 291 293 296 298 299 300 300 294 288 289 288 287 286 283 282 283 286 289 289
256 259 258 268 266 265 266 271 265 266 272 272 264 263 275 274 273 274 273 276 276 277 279 279 279 282 284 287 291 294 294 296 299 301 304 301 300 298 295 293 291 290 284 281 281 283 286 288 288
262 264 269 270 270 269 271 270 269 270 271 273 274 277 283 281 278 275 274 276 277 279 280 280 282 286 289 290 289 291 294 294 296 299 302 300 299 300 300 298 296 293 286 282 281 282 284 287 289
271 272 272 272 277 275 278 277 275 277 275 277 275 278 286 285 284 282 280 279 277 279 280 282 280 284 291 291 289 290 293 294 293 297 300 301 299 301 301 299 296 294 290 286 285 284 285 284 286
275 274 274 279 278 275 278 279 279 279 280 283 283 285 286 283 287 289 281 287 283 280 284 286 287 290 291 288 288 289 291 294 295 296 296 298 298 298 299 298 297 295 294 292 287 286 286 287 286
273 275 278 278 278 277 278 278 279 278 280 282 284 287 290 291 291 292 292 295 291 286 286 285 287 290 292 290 288 289 290 294 295 294 295 295 295 296 296 297 296 294 293 291 286 286 287 287 286
277 275 276 277 278 278 278 277 277 279 282 284 286 289 290 289 290 291 292 292 291 291 290 292 293 293 293 291 290 290 291 291 291 293 295 294 292 291 293 294 295 295 295 293 290 288 287 288 288
274 275 277 279 280 280 277 277 278 280 281 284 288 289 292 291 290 291 293 292 291 290 289 293 292 294 296 292 289 289 291 291 290 291 292 291 292 291 290 291 291 292 294 294 293 292 291 290 290
274 276 279 277 278 278 278 279 281 281 279 281 284 287 290 289 289 290 291 289 289 289 287 287 291 291 293 294 294 292 290 289 289 290 290 291 291 290 290 290 289 289 290 292 294 294 292 291 291
277 275 277 275 273 274 277 281 283 283 281 282 285 286 287 287 288 289 289 287 286 287 287 287 289 290 291 292 293 293 292 291 288 287 288 289 291 290 290 289 287 286 287 288 292 292 293 293 291
283 282 283 280 276 273 277 281 281 282 282 282 285 285 286 286 287 289 290 288 286 287 287 288 288 289 289 291 292 292 292 292 290 289 287 287 286 288 290 290 286 284 284 286 288 289 291 292 290
282 279 279 279 277 275 282 285 283 281 281 283 285 284 285 285 286 287 288 288 287 287 287 287 287 286 287 289 291 291 291 290 289 288 289 288 286 285 284 287 287 285 284 284 286 287 287 288 288
283 280 279 277 277 278 278 282 284 285 284 284 285 284 285 286 286 287 289 288 288 287 287 288 287 286 286 287 289 289 288 288 287 285 286 285 285 285 284 284 285 284 284 284 286 286 285 284 284
281 281 280 279 276 278 280 280 281 284 283 283 284 286 285 286 287 288 289 288 287 288 288 288 287 287 287 287 287 287 286 285 284 282 282 282 282 283 284 286 285 283 283 283 284 284 286 284 283
280 283 280 278 277 278 280 282 281 283 284 284 285 285 284 286 287 286 287 287 286 288 288 287 287 288 288 287 286 285 284 282 282 280 279 280 280 280 283 286 286 284 282 282 282 283 285 284 283
283 286 283 281 279 278 282 284 283 285 285 286 286 287 286 287 288 286 286 286 286 286 287 288 288 288 287 286 285 284 283 281 280 278 279 279 279 279 280 282 283 283 282 281 281 282 283 283 284
285 283 281 283 283 283 284 281 280 283 285 287 288 287 288 289 289 288 286 284 283 284 285 286 287 286 286 284 283 282 282 282 280 279 279 279 278 278 278 279 279 281 281 281 280 280 281 281 282
281 282 285 285 286 285 285 283 281 285 285 286 287 288 287 288 289 290 288 285 283 284 285 285 285 284 284 284 285 283 282 282 280 280 280 279 278 278 278 277 277 278 279 279 278 278 280 280 280
280 278 278 279 283 284 284 285 285 288 288 287 287 287 285 285 287 288 288 287 285 284 283 282 283 283 283 284 285 284 283 281 281 281 281 280 280 280 278 276 276 276 278 277 276 276 277 278 278
280 278 279 278 278 283 287 288 288 288 288 287 287 287 286 286 287 288 288 287 286 284 282 282 281 281 282 283 284 283 281 281 281 282 281 281 280 279 279 278 277 276 277 277 276 275 276 275 276
280 280 276 276 280 282 284 286 288 290 287 285 286 286 285 286 287 286 286 286 285 285 283 282 281 281 282 282 282 281 280 281 282 281 281 282 281 280 280 279 278 277 276 276 275 274 274 273 273
280 278 277 275 275 281 283 282 286 288 288 286 284 284 286 287 286 286 285 285 287 285 283 281 281 281 282 282 281 280 280 281 282 281 281 282 282 281 280 280 279 278 277 276 274 273 273 273 271
279 278 277 276 276 275 279 284 286 287 288 288 286 283 284 285 287 286 285 285 286 286 283 280 280 281 282 283 282 280 279 281 282 282 282 282 282 282 281 281 281 279 278 277 276 275 274 272 272
Height
5862 5863 5863 5865 5865 5865 5864 5865 5865 5866 5867 5867 5867 5868 5869 5870 5871 5873 5871 5870 5871 5871 5870 5871 5870 5870 5870 5870 5870 5870 5870 5870 5870 5870 5870 5870 5869 5869 5869 5869 5868 5868 5867 5868 5868 5868 5868 5868 5868
5863 5863 5864 5865 5864 5864 5865 5865 5865 5866 5866 5867 5867 5868 5869 5869 5870 5870 5870 5870 5871 5871 5870 5870 5870 5870 5870 5870 5870 5870 5870 5870 5870 5870 5869 5869 5869 5869 5869 5869 5868 5868 5867 5867 5867 5867 5867 5867 5867
5862 5863 5864 5864 5864 5864 5865 5865 5865 5865 5866 5866 5867 5868 5869 5869 5869 5869 5869 5870 5870 5870 5870 5870 5870 5870 5870 5870 5870 5870 5869 5870 5869 5869 5869 5869 5868 5868 5868 5868 5868 5868 5867 5867 5867 5867 5867 5867 5866
5863 5864 5864 5864 5864 5864 5864 5864 5864 5865 5865 5866 5866 5867 5868 5868 5868 5868 5869 5869 5870 5870 5870 5870 5870 5870 5870 5869 5869 5869 5869 5869 5869 5868 5868 5868 5868 5868 5867 5867 5867 5867 5867 5866 5866 5866 5866 5866 5866
5863 5863 5864 5863 5864 5864 5864 5864 5864 5865 5865 5865 5866 5867 5867 5867 5867 5868 5868 5869 5869 5869 5869 5869 5869 5869 5869 5869 5869 5869 5868 5868 5868 5868 5867 5866 5867 5867 5867 5866 5866 5866 5866 5866 5865 5865 5865 5865 5865
5863 5863 5863 5863 5863 5864 5864 5864 5864 5864 5864 5865 5866 5866 5866 5867 5867 5868 5868 5868 5868 5868 5868 5868 5868 5869 5868 5868 5868 5868 5868 5868 5867 5867 5867 5866 5866 5866 5866 5866 5865 5865 5865 5865 5864 5864 5864 5864 5863
5863 5863 5862 5863 5863 5863 5864 5864 5864 5864 5864 5865 5865 5866 5866 5866 5866 5867 5867 5867 5867 5867 5867 5868 5867 5868 5868 5867 5867 5867 5867 5867 5867 5866 5866 5866 5865 5865 5865 5864 5864 5864 5863 5863 5863 5863 5863 5862 5862
5862 5863 5862 5862 5862 5863 5863 5863 5863 5864 5864 5864 5865 5865 5865 5866 5865 5866 5866 5866 5866 5866 5866 5867 5867 5867 5866 5866 5866 5866 5866 5866 5865 5865 5865 5864 5864 5864 5864 5863 5863 5862 5862 5862 5862 5861 5861 5861 5860
5861 5863 5862 5862 5862 5863 5863 5863 5863 5863 5863 5863 5864 5864 5865 5864 5864 5865 5865 5865 5865 5865 5865 5865 5865 5865 5865 5865 5865 5865 5864 5864 5864 5864 5863 5863 5863 5862 5862 5862 5861 5861 5860 5860 5860 5859 5859 5859 5859
5861 5862 5862 5862 5862 5862 5862 5862 5862 5862 5863 5863 5863 5863 5863 5863 5864 5864 5864 5864 5863 5863 5863 5864 5864 5864 5864 5864 5863 5863 5863 5863 5862 5862 5862 5861 5861 5861 5860 5860 5859 5859 5858 5858 5857 5857 5857 5857 5856
5860 5861 5861 5861 5861 5861 5861 5862 5862 5862 5862 5862 5862 5863 5862 5862 5863 5862 5863 5862 5862 5862 5862 5862 5862 5862 5862 5862 5862 5862 5862 5861 5861 5860 5860 5860 5859 5859 5859 5858 5858 5857 5856 5856 5855 5855 5855 5854 5854
5859 5860 5860 5860 5860 5860 5860 5861 5861 5861 5861 5861 5861 5861 5861 5861 5861 5861 5861 5861 5861 5861 5861 5861 5861 5861 5861 5861 5860 5860 5860 5860 5859 5858 5858 5858 5858 5857 5857 5856 5856 5855 5854 5854 5853 5853 5852 5852 5852
5858 5858 5859 5859 5859 5859 5859 5860 5860 5860 5860 5860 5860 5860 5860 5860 5860 5860 5860 5860 5860 5860 5860 5859 5859 5859 5859 5859 5858 5858 5858 5858 5857 5857 5856 5856 5855 5855 5855 5854 5853 5853 5852 5851 5851 5850 5850 5850 5849
5857 5857 5857 5857 5858 5858 5858 5858 5858 5858 5858 5858 5859 5859 5859 5859 5858 5858 5858 5858 5858 5858 5858 5857 5857 5857 5857 5857 5856 5856 5855 5855 5855 5854 5854 5853 5853 5852 5852 5851 5851 5850 5850 5849 5849 5848 5848 5847 5847
5855 5856 5856 5856 5856 5856 5856 5857 5856 5857 5856 5857 5857 5857 5857 5857 5857 5856 5856 5856 5856 5856 5856 5855 5855 5855 5855 5854 5854 5854 5853 5853 5852 5852 5851 5851 5850 5850 5849 5849 5848 5848 5847 5847 5846 5845 5845 5844 5844
5853 5854 5854 5854 5854 5854 5856 5855 5855 5855 5854 5855 5855 5855 5854 5855 5855 5854 5854 5854 5854 5854 5854 5853 5853 5853 5852 5852 5851 5851 5850 5850 5849 5849 5848 5848 5847 5847 5846 5846 5845 5845 5844 5844 5843 5843 5842 5841 5841
5851 5851 5851 5852 5852 5852 5852 5852 5852 5852 5852 5852 5852 5852 5852 5852 5852 5852 5852 5852 5851 5851 5851 5851 5851 5850 5850 5849 5848 5848 5848 5847 5846 5846 5845 5844 5844 5844 5843 5843 5842 5842 5841 5841 5840 5840 5839 5838 5838
5850 5849 5849 5849 5849 5849 5849 5849 5850 5849 5849 5850 5850 5850 5850 5850 5850 5850 5850 5850 5849 5849 5848 5848 5848 5847 5847 5846 5845 5845 5844 5844 5843 5842 5842 5841 5840 5840 5840 5839 5839 5838 5838 5838 5837 5837 5836 5835 5835
5847 5847 5847 5847 5846 5846 5846 5846 5847 5847 5847 5847 5847 5847 5847 5847 5847 5847 5847 5847 5846 5846 5845 5845 5844 5844 5843 5843 5842 5842 5841 5840 5839 5839 5838 5837 5837 5836 5836 5836 5835 5835 5834 5834 5834 5833 5832 5832 5831
5844 5844 5844 5844 5844 5844 5844 5844 5844 5844 5844 5844 5843 5843 5844 5844 5843 5843 5843 5843 5842 5842 5842 5841 5840 5840 5839 5839 5838 5837 5837 5836 5835 5835 5834 5833 5833 5832 5832 5832 5831 5831 5831 5830 5830 5829 5828 5828 5827
5842 5841 5841 5841 5841 5840 5841 5841 5841 5841 5841 5841 5840 5840 5840 5840 5839 5839 5839 5839 5838 5838 5838 5837 5836 5835 5835 5834 5833 5833 5832 5831 5831 5830 5830 5829 5829 5828 5828 5827 5827 5826 5826 5826 5825 5825 5824 5824 5823
5838 5838 5838 5837 5838 5838 5838 5838 5838 5837 5837 5837 5837 5837 5836 5836 5835 5835 5835 5834 5834 5833 5833 5832 5831 5830 5829 5829 5828 5827 5827 5826 5826 5825 5825 5824 5824 5823 5823 5822 5822 5822 5821 5821 5820 5820 5819 5819 5819
5835 5835 5835 5834 5834 5834 5834 5834 5835 5834 5833 5833 5833 5832 5832 5831 5831 5830 5830 5829 5829 5828 5827 5827 5826 5825 5824 5823 5823 5822 5821 5821 5820 5820 5819 5819 5818 5818 5818 5817 5817 5816 5816 5816 5815 5815 5814 5813 5813
5832 5832 5832 5831 5830 5831 5831 5831 5830 5830 5829 5829 5828 5828 5827 5826 5826 5825 5825 5824 5823 5822 5822 5821 5820 5819 5818 5817 5817 5816 5815 5815 5815 5814 5814 5813 5813 5812 5812 5812 5811 5811 5810 5810 5810 5809 5809 5808 5807
5829 5829 5828 5827 5827 5827 5827 5826 5826 5826 5825 5825 5824 5823 5822 5822 5821 5820 5819 5819 5818 5817 5816 5816 5815 5814 5813 5811 5811 5810 5809 5809 5808 5808 5807 5807 5807 5806 5805 5805 5805 5805 5804 5804 5804 5803 5802 5802 5801
5826 5825 5825 5825 5824 5823 5823 5821 5822 5821 5820 5820 5819 5818 5817 5816 5815 5814 5813 5813 5812 5810 5810 5810 5809 5808 5807 5806 5805 5804 5803 5803 5802 5802 5801 5800 5800 5799 5799 5798 5798 5798 5798 5797 5797 5796 5796 5795 5795
5821 5821 5821 5820 5819 5819 5818 5818 5817 5816 5815 5814 5813 5812 5811 5811 5810 5808 5807 5806 5805 5804 5803 5803 5802 5801 5800 5800 5799 5797 5796 5796 5795 5795 5794 5793 5793 5792 5791 5791 5791 5790 5790 5790 5789 5789 5789 5788 5788
5818 5817 5817 5816 5815 5814 5814 5813 5812 5811 5810 5809 5808 5807 5805 5804 5803 5802 5801 5799 5798 5797 5796 5795 5795 5794 5793 5792 5791 5790 5789 5789 5788 5787 5787 5786 5785 5785 5784 5783 5783 5782 5782 5782 5781 5781 5780 5780 5780
5813 5812 5811 5810 5810 5809 5808 5809 5807 5805 5804 5802 5801 5800 5799 5797 5796 5794 5793 5792 5791 5790 5789 5788 5787 5787 5786 5785 5784 5783 5782 5782 5781 5780 5779 5779 5778 5777 5776 5775 5775 5774 5774 5773 5773 5772 5772 5772 5772
5807 5806 5806 5805 5804 5804 5802 5804 5801 5799 5797 5795 5794 5792 5792 5791 5789 5788 5786 5785 5784 5783 5782 5781 5780 5779 5779 5778 5776 5776 5775 5774 5773 5772 5772 5770 5769 5768 5768 5767 5766 5765 5765 5764 5763 5763 5763 5763 5763